Terminal Aerodrome Forecast
Issued by NWS Sioux Falls, SD

Home | Current Version | Previous Version | Text Only | Print | Product List | Glossary On
Versions: 1 2 3 4 5 6 7 8 9 10 11 12 13 14 15 16 17 18 19 20 21 22 23 24 25
000
FTUS43 KFSD 241120
TAFSUX
TAF
KSUX 241120Z 2412/2512 32015G23KT P6SM OVC008
     FM241700 31013KT P6SM OVC012
     FM242100 25007KT P6SM SCT015 SCT150
     FM250200 17008KT P6SM SCT070=

USA.gov is the U.S. government's official web portal to all federal, state and local government web resources and services.